GW2804 Weather Reports


time (UTC)temp
C
wind
direction
speed
KPH
gust
KPH
rain 1hr
cm
rain 24hr
cm
rain mn
cm
humidity
%
barometer
mb
20260507091557 4 0 1.6 8.0 0.00 0.00 0.00 67 1014.9
20260507090051 4 163 1.6 8.0 0.00 0.00 0.00 66 1015.0
20260507084552 4 173 3.2 9.7 0.00 0.00 0.00 65 1015.0
20260507083049 5 193 4.8 9.7 0.00 0.00 0.00 64 1015.1
20260507081550 5 169 4.8 9.7 0.00 0.00 0.00 64 1015.2
20260507074552 5 185 4.8 9.7 0.00 0.00 0.00 62 1015.3
20260507073102 5 188 3.2 11.3 0.00 0.00 0.00 61 1015.4
20260507071556 5 200 4.8 9.7 0.00 0.00 0.00 60 1015.5
20260507070100 5 193 3.2 9.7 0.00 0.00 0.00 59 1015.7
20260507064551 5 199 1.6 9.7 0.00 0.00 0.00 59 1015.9
20260507063052 5 217 3.2 8.0 0.00 0.00 0.00 60 1015.9
20260507061549 5 221 3.2 8.0 0.00 0.00 0.00 60 1016.1
20260507060058 5 0 0.0 4.8 0.00 0.00 0.00 60 1016.1
20260507054549 6 0 0.0 4.8 0.00 0.00 0.00 60 1016.3
20260507053057 6 191 1.6 6.4 0.00 0.00 0.00 57 1016.3
20260507051549 6 204 1.6 4.8 0.00 0.00 0.00 57 1016.3
20260507050052 6 197 3.2 8.0 0.00 0.00 0.00 56 1016.4
20260507044559 6 209 3.2 8.0 0.00 0.00 0.00 56 1016.4
20260507043056 6 0 0.0 0.0 0.00 0.00 0.00 59 1016.4
20260507041550 6 0 0.0 0.0 0.00 0.00 0.00 57 1016.4
20260507040051 6 0 0.0 0.0 0.00 0.00 0.00 58 1016.5
20260507034551 6 0 0.0 0.0 0.00 0.00 0.00 57 1016.5
20260507033048 7 0 0.0 0.0 0.00 0.00 0.00 56 1016.6
20260507031547 7 0 0.0 0.0 0.00 0.00 0.00 54 1016.6
20260507030057 7 0 0.0 0.0 0.00 0.00 0.00 52 1016.6
20260507024554 8 0 0.0 0.0 0.00 0.00 0.00 48 1016.5
20260507023047 9 0 0.0 0.0 0.00 0.00 0.00 45 1016.6
20260507021556 10 0 0.0 1.6 0.00 0.00 0.00 42 1016.3
20260507020052 10 286 0.0 4.8 0.00 0.00 0.00 39 1016.2
20260507014550 10 313 1.6 8.0 0.00 0.00 0.00 38 1016.1
20260507013058 11 291 1.6 6.4 0.00 0.00 0.00 37 1016.2
20260507011553 11 283 3.2 9.7 0.00 0.00 0.00 36 1016.1
20260507010048 12 284 3.2 11.3 0.00 0.00 0.00 34 1016.2
20260507004552 12 298 4.8 14.5 0.00 0.00 0.00 34 1016.1
20260507003051 12 280 4.8 16.1 0.00 0.00 0.00 32 1015.9
20260507001551 12 296 8.0 24.1 0.00 0.00 0.00 31 1016.0
20260507000055 12 288 9.7 20.9 0.00 0.00 0.00 31 1016.1
20260506234554 13 321 9.7 22.5 0.00 0.00 0.00 31 1016.3
20260506233053 12 304 14.5 29.0 0.00 0.00 0.00 31 1016.4
20260506231552 13 300 4.8 25.7 0.00 0.00 0.00 32 1016.4
20260506230055 13 288 9.7 22.5 0.00 0.00 0.00 31 1016.4
20260506224602 13 257 6.4 25.7 0.00 0.00 0.00 31 1016.5
20260506223052 13 269 12.9 27.4 0.00 0.00 0.00 31 1016.5
20260506221548 12 222 8.0 20.9 0.00 0.00 0.00 33 1016.5
20260506220053 13 271 16.1 30.6 0.00 0.00 0.00 31 1016.6
20260506214607 13 319 12.9 29.0 0.00 0.00 0.00 32 1016.6
20260506213051 12 242 11.3 29.0 0.00 0.00 0.00 33 1016.6
20260506211548 12 345 11.3 27.4 0.00 0.00 0.00 33 1016.8
20260506210054 12 263 11.3 29.0 0.00 0.00 0.00 33 1017.0
20260506204604 12 266 16.1 29.0 0.00 0.00 0.00 34 1017.1
20260506203055 12 339 16.1 27.4 0.00 0.00 0.00 34 1017.1
20260506201551 13 300 12.9 27.4 0.00 0.00 0.00 34 1017.1
20260506200047 13 281 11.3 29.0 0.00 0.00 0.00 34 1017.2
20260506194600 12 314 11.3 32.2 0.00 0.00 0.00 33 1017.3
20260506193058 13 267 12.9 29.0 0.00 0.00 0.00 33 1017.2
20260506191553 13 315 8.0 25.7 0.00 0.00 0.00 34 1017.2
20260506190046 13 293 14.5 25.7 0.00 0.00 0.00 33 1017.2
20260506184550 12 352 14.5 24.1 0.00 0.00 0.00 34 1017.1
20260506183100 12 352 9.7 22.5 0.00 0.00 0.00 34 1017.5
20260506181553 11 304 8.0 22.5 0.00 0.00 0.00 36 1017.6
20260506180052 12 286 14.5 29.0 0.00 0.00 0.00 34 1017.6
20260506174549 12 360 12.9 24.1 0.00 0.00 0.00 34 1017.7
20260506173051 12 244 8.0 27.4 0.00 0.00 0.00 34 1017.6
20260506171557 12 330 11.3 22.5 0.00 0.00 0.00 34 1017.5
20260506170052 12 232 14.5 33.8 0.00 0.00 0.00 35 1017.5
20260506164555 11 273 8.0 29.0 0.00 0.00 0.00 36 1017.6
20260506163058 11 284 14.5 24.1 0.00 0.00 0.00 37 1017.8
20260506160054 10 328 6.4 19.3 0.00 0.00 0.00 39 1017.4
20260506153045 11 340 8.0 19.3 0.00 0.00 0.00 38 1017.6
20260506151555 10 331 9.7 20.9 0.00 0.00 0.00 40 1017.5
20260506150052 10 280 8.0 22.5 0.00 0.00 0.00 43 1017.7
20260506144559 10 297 9.7 20.9 0.00 0.00 0.00 42 1017.6
20260506143054 9 348 11.3 20.9 0.00 0.00 0.00 45 1017.3
20260506141547 8 20 12.9 22.5 0.00 0.00 0.00 46 1017.0
20260506140059 8 30 11.3 20.9 0.00 0.00 0.00 48 1017.0
20260506134557 7 335 11.3 24.1 0.00 0.00 0.00 50 1017.0
20260506133102 6 332 8.0 16.1 0.00 0.00 0.00 57 1016.7
20260506131548 6 324 6.4 16.1 0.00 0.00 0.00 58 1016.7
20260506130049 6 317 3.2 14.5 0.00 0.00 0.00 59 1016.6
20260506124549 6 350 3.2 12.9 0.00 0.00 0.00 60 1016.5
20260506123051 5 323 3.2 12.9 0.00 0.00 0.00 61 1016.4
20260506121551 5 360 4.8 14.5 0.00 0.00 0.00 63 1016.0
20260506120053 5 352 4.8 9.7 0.00 0.00 0.00 64 1015.8
20260506114555 5 331 4.8 12.9 0.00 0.03 0.00 64 1015.4
20260506113052 5 325 3.2 8.0 0.00 0.03 0.00 64 1015.0
20260506111552 5 0 3.2 9.7 0.00 0.03 0.00 64 1014.9
20260506110052 5 325 3.2 8.0 0.00 0.03 0.00 64 1014.5
20260506104556 5 355 3.2 9.7 0.00 0.03 0.00 63 1014.2
20260506103047 5 320 3.2 8.0 0.00 0.03 0.00 63 1014.1
20260506101552 5 308 3.2 8.0 0.00 0.03 0.00 63 1014.0
20260506100054 5 213 3.2 8.0 0.00 0.03 0.00 63 1013.9
20260506094548 5 342 4.8 9.7 0.00 0.03 0.00 63 1013.9
20260506093048 5 322 1.6 8.0 0.00 0.03 0.00 64 1013.9